This is the latest recevied weather packets stored in our database for station/object KG7MRB. If no packets are shown the sender has not sent any weather packets the latest 1 day(s).
| Time | Temp. | Humidity | Pressure | Rain* | Wind** | Luminosity | Snow |
|---|---|---|---|---|---|---|---|
| 1778096985 | 11.11° C | 96% | 1038.3 hPa | 0 mm | - | 52 W/m² | - |
| 1778096683 | 11.11° C | 97% | 1038.3 hPa | 0 mm | - | 46 W/m² | - |
| 1778095773 | 11.11° C | 96% | 1038.2 hPa | 0 mm | - | 51 W/m² | - |
| 1778095470 | 11.11° C | 96% | 1038.3 hPa | 0 mm | - | 48 W/m² | - |
| 1778093348 | 11.11° C | 96% | 1038 hPa | 0 mm | - | 59 W/m² | - |
| 1778090316 | 11.11° C | 95% | 1037.8 hPa | 0 mm | - | 71 W/m² | - |
| 1778087584 | 11.11° C | 95% | 1037.6 hPa | 0 mm | - | 59 W/m² | - |
| 1778087282 | 11.67° C | 95% | 1037.6 hPa | 0 mm | - | 59 W/m² | - |
| 1778085767 | 11.11° C | 95% | 1037.7 hPa | 0 mm | - | 54 W/m² | - |
| 1778085464 | 11.11° C | 96% | 1037.8 hPa | 0 mm | - | 46 W/m² | - |
| 1778084855 | 11.11° C | 96% | 1037.7 hPa | 0 mm | - | 47 W/m² | - |
| 1778084250 | 11.11° C | 96% | 1037.7 hPa | 0 mm | - | 57 W/m² | - |
| 1778083644 | 11.11° C | 95% | 1038.1 hPa | 0 mm | - | 37 W/m² | - |
| 1778083340 | 11.11° C | 95% | 1037.8 hPa | 0 mm | - | 38 W/m² | - |
| 1778083039 | 11.11° C | 95% | 1037.7 hPa | 0 mm | - | 45 W/m² | - |
| 1778078568 | 10.56° C | 98% | 1036.7 hPa | 0 mm | - | 44 W/m² | - |
| 1778078266 | 10.56° C | 97% | 1037 hPa | 0 mm | - | 49 W/m² | - |
| 1778077963 | 10.56° C | 97% | 1036.9 hPa | 0 mm | - | 53 W/m² | - |
| 1778077359 | 10.56° C | 98% | 1036.9 hPa | 0 mm | - | 42 W/m² | - |
| 1778077057 | 10.56° C | 98% | 1036.6 hPa | 0 mm | - | 62 W/m² | - |
| 1778076149 | 10.56° C | 96% | 1036.7 hPa | 0 mm | - | 41 W/m² | - |
| 1778075542 | 10.56° C | 97% | 1036.9 hPa | 0 mm | - | 33 W/m² | - |
| 1778075239 | 10.56° C | 98% | 1036.4 hPa | 0 mm | - | 26 W/m² | - |
| 1778074935 | 10° C | 99% | 1036.2 hPa | 0 mm | - | 33 W/m² | - |
| 1778074329 | 10° C | 99% | 1036.4 hPa | 0 mm | - | 22 W/m² | - |
* Rain latest hour (hover to see other rain measurements)
** Current wind speed in m/s (hover to see current wind gust speed)